Regional Weather Roundup
Issued by NWS New Orleans/Baton Rouge, LA

Home | Current Version | Previous Version | Text Only | Print | Product List | Glossary Off
Versions: 1 2 3 4 5 6 7 8 9 10 11 12 13 14 15 16 17 18 19 20 21 22 23 24 25 26 27 28 29 30 31 32 33 34 35 36 37 38 39 40 41 42 43 44 45 46 47 48 49 50

406
ASUS44 KLIX 312301
RWRLIX
NEW ORLEANS REGIONAL WEATHER ROUNDUP
NATIONAL WEATHER SERVICE NEW ORLEANS LA
600 PM CDT FRI OCT 31 2014

NOTE: "FAIR" INDICATES FEW OR NO CLOUDS BELOW 12,000 FEET WITH NO
      SIGNIFICANT WEATHER AND/OR OBSTRUCTIONS TO VISIBILITY.
      SKY/WX - SKY CONDITION AND SIGNIFICANT WEATHER.
      TMP - AIR TEMPERATURE.     DP    - DEWPOINT TEMPERATURE.
      RH  - RELATIVE HUMIDITY.   PRES  - PRESSURE.
      HI  - HEAT INDEX.          WCI   - WIND CHILL INDEX.

*  THESE STATIONS ARE NOT NWS OR FAA STATIONS AND ARE NOT UNDER
   NWS QUALITY CONTROL.

LAZ038-040-048-061>063-065>067-069-010000-
SOUTHEAST LOUISIANA

CITY           SKY/WX    TMP DP  RH WIND       PRES   REMARKS
N.O. AUDUBON     N/A     70 N/A N/A MISG        N/A
N.O. INTL ARPT PTCLDY    71  45  39 N17G29    30.05R
N.O. LAKEFRONT CLEAR     72  50  45 N26       30.05R
N.O. DOWNTOWN*   N/A     72  45  37 N7G18     30.05R
SLIDELL        CLEAR     69  45  41 N9        30.03R
BATON ROUGE    PTCLDY    68  47  46 NW13G18   30.10R
BOOTHVILLE     CLEAR     71  47  42 NW17G25   30.01R
BELLE CHASSE   PTCLDY    71  44  37 N8        30.03R
BOGALUSA*        N/A     69  44  40 N12G21    30.07R
NEW ROADS*       N/A     66  47  50 NW9       30.12R
GONZALES*        N/A     68  47  47 NW9G17    30.08R
HAMMOND*       NOT AVBL
HOUMA*         NOT AVBL
PORT FOURCHON* NOT AVBL

$$

MSZ070-080>082-010000-
SOUTHERN MISSISSIPPI

CITY           SKY/WX    TMP DP  RH WIND       PRES   REMARKS
MCCOMB         CLEAR     65  44  46 N13G23    30.09R
GULFPORT       CLEAR     69  45  41 N16G24    30.01R
BILOXI         CLEAR     70  47  43 N15       30.00R
PASCAGOULA     CLEAR     68  46  45 NW7       29.99R

$$

COASTAL OBSERVATIONS
LAKE AND NEARSHORE STATIONS

STATION/POSITION TIME  TEMP    WIND        PRES    WAVE
                       AIR SEA DIR/SP/G            HT/PER
                 (UTC) (F)     (DEG/KT/KT) (MB)    (FT/S)
PASCAGOULA       2200   71     330/ 10/ 20 1014.6
WAVELAND YACHT   2200   71     330/ 15/ 19 1015.4
GRAND ISLE       2200   73 74  350/ 15/ 21 1016.9
SOUTHWEST PASS   2200   75 78              1016.2
NEW CANAL        2200   71 70  350/ 19/ 25 1017.4
SHELL BEACH      2200   71 67  320/ 19/ 21 1016.3

OFFSHORE STATIONS

STATION/POSITION TIME  TEMP    WIND        PRES    WAVE
                       AIR SEA DIR/SP/G            HT/PER
                 (UTC) (F)     (DEG/KT/KT) (MB)    (FT/S)
64 S DAUPHIN ISL 2234   72 78  310/ 21/ 25 1015.1    3/ 4

$$




USA.gov is the U.S. government's official web portal to all federal, state and local government web resources and services.